Simultaneous Nadir Overpasses (SNOs) Predictions

Prediction of SNOs between LANDSAT-8 and METOP-B Satellite Orbit:

Table of predicted SNOs for the next 14.0 days since TLE Epoch: 11/27/2021
Index Date (LANDSAT-8) Time (LANDSAT-8) Lat,Lon (LANDSAT-8) SZA (LANDSAT-8 ) Date (METOP-B) Time (METOP-B) Lat,Lon (METOP-B) SZA (METOP-B ) Distance(km) Time Diff (sec)
1 11/27/2021 18:14:31 81.14, -53.53 104.65 11/27/2021 18:13:24 81.13, -53.44 104.63 1.44 67
2 11/27/2021 19:03:57 -81.16, 114.42 75.31 11/27/2021 19:04:03 -81.16, 114.57 75.29 2.54 6
3 11/30/2021 13:48:46 81.12, 12.72 105.07 11/30/2021 13:47:46 81.12, 12.58 105.02 2.56 60
4 11/30/2021 14:38:12 -81.15,-179.30 74.88 11/30/2021 14:38:25 -81.14,-179.41 74.89 1.86 13
5 12/03/2021 09:23:01 81.13, 79.30 105.47 12/03/2021 09:22:07 81.13, 79.34 105.46 0.66 54
6 12/03/2021 10:12:27 -81.16,-112.70 74.47 12/03/2021 10:12:46 -81.15,-112.65 74.46 0.88 19
7 12/06/2021 04:57:16 81.14, 145.83 105.82 12/06/2021 04:56:29 81.13, 145.70 105.78 2.49 47
8 12/06/2021 05:46:43 -81.14, -46.51 74.18 12/06/2021 05:47:09 -81.14, -46.66 74.18 2.66 26
9 12/09/2021 00:31:30 81.14,-147.68 106.10 12/09/2021 00:30:49 81.14,-147.58 106.09 1.65 41



Historial Predications of SNOs between LANDSAT-8 and METOP-B
